Date String (YYYY-MM-DD hh:mm:ss) UTC,Instrument flags,Ambient pressure (hPa),Sample flow (lpm),Bypass flow (lpm),Sample temperature (°C),Ambient temperature (°C),ASC tube jacket temperature (°C),LED temperature (°C),Box temperature (°C),Sample RH (%),Span deviation,Mass concentration (μg/m³),Mass concentration (μg/m³),Mass concentration (μg/m³)
DateTimeUTC,F1_M11,P_M11,Q1_M11,Q2_M11,T1_M11,T2_M11,T3_M11,T4_M11,T5_M11,U1_M11,ZSPAN_M11,X0_M11,X2_M11,X1_M11
2021-09-26 02:00:00,,0826.0,5.00,0.00,29.5,26.8,00.0,38.5,30.9,12.2,0001.8,0016.89,0007.39,0006.32
2021-09-26 02:01:00,,0826.0,5.01,0.00,29.4,26.1,00.0,38.5,30.7,12.3,0001.8,0016.44,0007.38,0006.34
2021-09-26 02:02:00,,0826.0,4.99,0.00,29.3,26.4,00.0,38.5,30.7,12.3,0002.3,0016.93,0007.40,0006.34
2021-09-26 02:03:00,,0826.0,5.00,0.00,29.2,26.8,00.0,38.4,30.9,12.3,0002.5,0017.11,0007.36,0006.35
2021-09-26 02:04:00,,0826.0,5.01,0.00,29.3,27.2,00.0,38.4,30.9,12.3,0002.3,0017.01,0007.38,0006.36
2021-09-26 02:05:00,,0826.1,4.98,0.00,29.3,27.5,00.0,38.4,31.0,12.4,0002.5,0017.17,0007.42,0006.37
2021-09-26 02:06:00,,0826.1,5.01,0.00,29.3,27.8,00.0,38.4,31.1,12.4,0002.7,0016.76,0007.38,0006.37
2021-09-26 02:07:00,,0826.2,5.00,0.00,29.4,28.0,00.0,38.4,31.2,12.4,0002.8,0015.89,0007.38,0006.34
2021-09-26 02:08:00,,0826.2,4.99,0.00,29.4,28.2,00.0,38.4,31.2,12.3,0002.7,0015.16,0007.38,0006.34
2021-09-26 02:09:00,,0826.2,5.01,0.00,29.4,28.4,00.0,38.4,31.2,12.3,0003.4,0015.06,0007.35,0006.34
2021-09-26 02:10:00,,0826.2,4.99,0.00,29.5,28.5,00.0,38.4,31.3,12.5,0003.4,0014.63,0007.24,0006.33
2021-09-26 02:11:00,,0826.1,4.99,0.00,29.5,28.6,00.0,38.5,31.3,12.3,0003.0,0014.32,0007.22,0006.32
2021-09-26 02:12:00,,0826.1,5.02,0.00,29.6,28.7,00.0,38.5,31.4,12.3,0002.9,0014.23,0007.27,0006.33
2021-09-26 02:13:00,,0826.2,5.01,0.00,29.6,28.4,00.0,38.5,31.3,12.2,0002.8,0013.77,0007.27,0006.33
2021-09-26 02:14:00,,0826.2,4.99,0.00,29.5,26.6,00.0,38.5,30.8,12.3,0002.9,0013.71,0007.31,0006.33
2021-09-26 02:15:00,,0826.2,5.01,0.00,29.3,26.1,00.0,38.5,30.7,12.4,0003.1,0014.58,0007.32,0006.34
2021-09-26 02:16:00,,0826.2,5.00,0.00,29.3,26.4,00.0,38.5,30.8,12.4,0002.9,0014.89,0007.36,0006.34
2021-09-26 02:17:00,,0826.2,5.01,0.00,29.2,26.8,00.0,38.4,30.9,12.4,0002.8,0015.53,0007.44,0006.34
2021-09-26 02:18:00,,0826.2,4.99,0.00,29.3,27.2,00.0,38.4,30.9,12.3,0002.9,0016.04,0007.41,0006.34
2021-09-26 02:19:00,,0826.2,5.02,0.00,29.3,27.5,00.0,38.4,31.0,12.3,0003.0,0015.56,0007.40,0006.33
2021-09-26 02:20:00,,0826.1,4.99,0.00,29.3,27.8,00.0,38.4,31.1,12.3,0002.9,0015.49,0007.42,0006.32
2021-09-26 02:21:00,,0826.1,5.01,0.00,29.3,28.0,00.0,38.4,31.1,12.2,0003.2,0015.34,0007.42,0006.30
2021-09-26 02:22:00,,0826.2,5.00,0.00,29.4,28.2,00.0,38.4,31.2,12.2,0003.3,0016.36,0007.46,0006.30
2021-09-26 02:23:00,,0826.2,5.00,0.00,29.4,28.3,00.0,38.4,31.2,12.1,0003.1,0016.64,0007.44,0006.28
2021-09-26 02:24:00,,0826.2,4.99,0.00,29.5,28.5,00.0,38.4,31.3,12.1,0002.9,0017.38,0007.45,0006.26
2021-09-26 02:25:00,,0826.2,5.00,0.00,29.5,28.6,00.0,38.5,31.4,12.0,0002.7,0017.34,0007.38,0006.25
2021-09-26 02:26:00,,0826.1,5.00,0.00,29.6,28.7,00.0,38.5,31.4,12.0,0002.4,0016.43,0007.34,0006.25
2021-09-26 02:27:00,,0826.1,4.99,0.00,29.6,28.7,00.0,38.5,31.4,12.0,0002.3,0016.37,0007.33,0006.24
2021-09-26 02:28:00,,0826.2,5.02,0.00,29.6,28.3,00.0,38.5,31.3,12.0,0002.7,0015.86,0007.27,0006.24
2021-09-26 02:29:00,,0826.2,5.00,0.00,29.5,26.5,00.0,38.5,30.9,12.1,0002.6,0015.86,0007.26,0006.25
2021-09-26 02:30:00,,0826.2,5.01,0.00,29.4,26.1,00.0,38.5,30.8,12.1,0002.7,0016.73,0007.26,0006.27
2021-09-26 02:31:00,,0826.1,5.00,0.00,29.3,26.4,00.0,38.5,30.8,12.2,0002.4,0017.79,0007.25,0006.28
2021-09-26 02:32:00,,0826.1,5.00,0.00,29.3,26.9,00.0,38.5,30.9,12.2,0002.0,0018.25,0007.34,0006.30
2021-09-26 02:33:00,,0826.2,4.99,0.00,29.3,27.2,00.0,38.4,31.0,12.2,0001.8,0019.04,0007.35,0006.31
2021-09-26 02:34:00,,0826.1,5.02,0.00,29.3,27.6,00.0,38.4,31.0,12.1,0002.1,0019.26,0007.38,0006.32
2021-09-26 02:35:00,,0826.1,4.99,0.00,29.3,27.8,00.0,38.4,31.1,12.1,0002.3,0019.10,0007.40,0006.35
2021-09-26 02:36:00,,0826.1,5.00,0.00,29.4,28.0,00.0,38.4,31.1,12.0,0002.4,0019.37,0007.47,0006.35
2021-09-26 02:37:00,,0826.2,4.99,0.00,29.4,28.2,00.0,38.4,31.2,12.1,0002.4,0020.00,0007.48,0006.35
2021-09-26 02:38:00,,0826.1,5.01,0.00,29.4,28.3,00.0,38.4,31.3,12.0,0002.5,0019.67,0007.40,0006.35
2021-09-26 02:39:00,,0826.1,4.99,0.00,29.5,28.5,00.0,38.5,31.3,11.9,0002.2,0019.97,0007.42,0006.34
2021-09-26 02:40:00,,0826.1,5.00,0.00,29.5,28.6,00.0,38.5,31.4,11.9,0002.3,0019.79,0007.48,0006.33
2021-09-26 02:41:00,,0826.1,5.01,0.00,29.6,28.6,00.0,38.5,31.4,11.9,0002.1,0018.87,0007.47,0006.31
2021-09-26 02:42:00,,0826.2,5.00,0.00,29.6,28.7,00.0,38.5,31.4,11.9,0001.9,0017.65,0007.45,0006.30
2021-09-26 02:43:00,,0826.1,5.00,0.00,29.6,28.8,00.0,38.6,31.5,11.8,0001.9,0017.22,0007.37,0006.30
2021-09-26 02:44:00,,0826.2,5.00,0.00,29.7,28.3,00.0,38.6,31.4,11.8,0002.0,0015.44,0007.37,0006.31
2021-09-26 02:45:00,,0826.2,4.99,0.00,29.5,26.1,00.0,38.6,30.8,11.8,0001.9,0014.96,0007.37,0006.33
2021-09-26 02:46:00,,0826.2,5.01,0.00,29.3,24.9,00.0,38.5,30.4,12.0,0001.9,0015.14,0007.35,0006.35
2021-09-26 02:47:00,,0826.2,5.00,0.00,29.2,25.3,00.0,38.5,30.5,11.9,0001.6,0014.99,0007.32,0006.38
2021-09-26 02:48:00,,0826.2,5.01,0.00,29.1,25.8,00.0,38.4,30.6,11.9,0001.3,0015.68,0007.37,0006.41
2021-09-26 02:49:00,,0826.1,5.00,0.00,29.1,26.3,00.0,38.4,30.7,11.9,0001.0,0016.05,0007.46,0006.45
2021-09-26 02:50:00,,0826.2,4.99,0.00,29.1,26.8,00.0,38.3,30.7,11.8,0001.0,0015.69,0007.47,0006.48
2021-09-26 02:51:00,,0826.2,5.01,0.00,29.1,27.2,00.0,38.3,30.8,11.9,0000.9,0015.57,0007.41,0006.50
2021-09-26 02:52:00,,0826.1,4.99,0.00,29.1,27.5,00.0,38.3,30.9,11.8,0001.2,0015.71,0007.47,0006.54
2021-09-26 02:53:00,,0826.2,5.02,0.00,29.2,27.7,00.0,38.3,30.9,11.9,0001.7,0016.33,0007.53,0006.58
2021-09-26 02:54:00,,0826.2,5.00,0.00,29.2,27.9,00.0,38.3,31.0,11.9,0001.8,0017.10,0007.55,0006.61
2021-09-26 02:55:00,,0826.2,5.00,0.00,29.2,28.0,00.0,38.3,31.0,11.8,0001.8,0017.42,0007.57,0006.63
2021-09-26 02:56:00,,0826.2,5.00,0.00,29.3,28.2,00.0,38.3,31.1,11.7,0001.8,0017.29,0007.54,0006.63
2021-09-26 02:57:00,,0826.2,4.99,0.00,29.3,28.3,00.0,38.3,31.2,11.6,0001.7,0017.57,0007.54,0006.63
2021-09-26 02:58:00,,0826.2,5.02,0.00,29.4,28.4,00.0,38.4,31.2,11.4,0001.6,0018.35,0007.57,0006.64
2021-09-26 02:59:00,,0826.1,5.00,0.00,29.4,28.5,00.0,38.4,31.3,11.4,0001.9,0017.32,0007.54,0006.64
